LNR03EM LFPG-OBBI

Flight info

Callsign LNR03EM
Flight time 6h 4m
Altitude 35000
Route LANVI DCT BEGAR DCT TRA DCT GAMSA N871 MADEB N606 ELMEM L607 GEDSO DCT GIMIX DCT AGLIB DCT VEBAR DCT NISVA DCT ADORU UT302 VATCA/N0454F370 UL333 ASMAP UT341 BAG UL614 GOBIT UG8 MARTI UL614 EZS UT36 RENGI UT253 OTKEP UM688 RATVO DCT SIDAD P975 LONOS L703 KOBOK
Aircraft A320/M-SDE3FGHIRWY/LB1

Departure

Time 2026-05-06 13:25
Airport Charles de Gaulle International Airport (LFPG)

Arrival

Time 2026-05-06 19:30
Airport Bahrain International Airport (OBBI)
Time Latitude Longitude Altitude Speed Heading
2026-05-06 12:51 49.00203 2.58415 361 ft 0 kts 86°
2026-05-06 13:17 49.00202 2.58404 363 ft 4 kts 88°
2026-05-06 13:17 49.00203 2.58363 359 ft 4 kts 101°
2026-05-06 13:17 49.00212 2.58325 364 ft 4 kts 125°
2026-05-06 13:17 49.00229 2.58301 362 ft 3 kts 172°
2026-05-06 13:18 49.00232 2.58301 362 ft 0 kts 175°
2026-05-06 13:19 49.00217 2.58303 359 ft 3 kts 175°
2026-05-06 13:19 49.00184 2.58306 357 ft 6 kts 176°
2026-05-06 13:19 49.00132 2.58312 354 ft 9 kts 175°
2026-05-06 13:20 49.00073 2.58320 354 ft 8 kts 175°
2026-05-06 13:20 49.00027 2.58346 360 ft 7 kts 133°
2026-05-06 13:20 49.00017 2.58417 356 ft 8 kts 84°
2026-05-06 13:20 49.00021 2.58502 354 ft 9 kts 85°
2026-05-06 13:21 49.00026 2.58600 354 ft 10 kts 86°
2026-05-06 13:21 49.00032 2.58709 358 ft 11 kts 85°
2026-05-06 13:21 49.00038 2.58830 354 ft 12 kts 86°
2026-05-06 13:21 49.00045 2.58962 354 ft 13 kts 85°
2026-05-06 13:22 49.00052 2.59094 356 ft 13 kts 85°
2026-05-06 13:22 49.00063 2.59295 357 ft 24 kts 85°
2026-05-06 13:22 49.00078 2.59554 354 ft 25 kts 84°
2026-05-06 13:22 49.00092 2.59820 354 ft 26 kts 85°
2026-05-06 13:23 49.00106 2.60093 354 ft 26 kts 86°
2026-05-06 13:23 49.00118 2.60314 354 ft 13 kts 85°
2026-05-06 13:23 49.00097 2.60390 357 ft 7 kts 146°
2026-05-06 13:23 49.00048 2.60403 354 ft 9 kts 178°
2026-05-06 13:24 48.99981 2.60407 357 ft 11 kts 182°
2026-05-06 13:24 48.99896 2.60372 357 ft 15 kts 200°
2026-05-06 13:24 48.99835 2.60241 353 ft 18 kts 264°
2026-05-06 13:24 48.99818 2.59932 355 ft 54 kts 266°
2026-05-06 13:25 48.99771 2.59023 360 ft 115 kts 265°
2026-05-06 13:25 48.99693 2.57562 352 ft 160 kts 265°
2026-05-06 13:25 48.99599 2.55740 675 ft 175 kts 266°
2026-05-06 13:25 48.99498 2.53894 1396 ft 175 kts 269°
2026-05-06 13:26 48.99397 2.52053 2108 ft 174 kts 268°
2026-05-06 13:26 48.99297 2.50216 2695 ft 174 kts 269°
2026-05-06 13:26 48.99197 2.48381 3261 ft 174 kts 269°
2026-05-06 13:26 48.99098 2.46530 3731 ft 181 kts 270°
2026-05-06 13:27 48.98993 2.44509 3943 ft 202 kts 269°
2026-05-06 13:27 48.98872 2.42260 4164 ft 222 kts 269°
2026-05-06 13:27 48.98737 2.39802 4507 ft 241 kts 269°
2026-05-06 13:27 48.98591 2.37144 4920 ft 261 kts 268°
2026-05-06 13:28 48.98434 2.34350 5599 ft 268 kts 268°
2026-05-06 13:28 48.98273 2.31506 6387 ft 272 kts 268°
2026-05-06 13:28 48.98112 2.28631 7154 ft 274 kts 268°
2026-05-06 13:28 48.97894 2.25749 7926 ft 278 kts 257°
2026-05-06 13:29 48.97085 2.23104 8694 ft 284 kts 234°
2026-05-06 13:29 48.95603 2.21127 9464 ft 289 kts 210°
2026-05-06 13:29 48.93679 2.20240 10192 ft 294 kts 185°
2026-05-06 13:29 48.91610 2.20610 10624 ft 311 kts 165°
2026-05-06 13:30 48.89460 2.21645 10767 ft 335 kts 163°
2026-05-06 13:30 48.87180 2.22812 10890 ft 357 kts 162°
2026-05-06 13:30 48.84874 2.24445 11063 ft 376 kts 147°
2026-05-06 13:30 48.82869 2.27075 11532 ft 385 kts 132°
2026-05-06 13:31 48.81359 2.30457 12103 ft 390 kts 116°
2026-05-06 13:31 48.80490 2.34374 12682 ft 394 kts 100°
2026-05-06 13:31 48.80381 2.38523 13279 ft 397 kts 84°
2026-05-06 13:31 48.80662 2.42716 13815 ft 401 kts 84°
2026-05-06 13:32 48.80955 2.46934 14374 ft 403 kts 84°
2026-05-06 13:32 48.81247 2.51170 14893 ft 406 kts 84°
2026-05-06 13:32 48.81536 2.55444 15427 ft 408 kts 84°
2026-05-06 13:32 48.81819 2.59739 15987 ft 411 kts 84°
2026-05-06 13:33 48.82101 2.64072 16462 ft 415 kts 84°
2026-05-06 13:33 48.82385 2.68442 16932 ft 417 kts 84°
2026-05-06 13:33 48.82670 2.72841 17378 ft 421 kts 84°
2026-05-06 13:33 48.82957 2.77283 17826 ft 424 kts 84°
2026-05-06 13:34 48.83244 2.81748 18279 ft 427 kts 85°
2026-05-06 13:34 48.83529 2.86249 18655 ft 430 kts 85°
2026-05-06 13:34 48.83810 2.90777 19113 ft 431 kts 85°
2026-05-06 13:34 48.84090 2.95327 19514 ft 434 kts 85°
2026-05-06 13:35 48.84383 2.99900 19914 ft 436 kts 83°
2026-05-06 13:35 48.84981 3.04364 20301 ft 439 kts 75°
2026-05-06 13:35 48.85781 3.08841 20667 ft 441 kts 75°
2026-05-06 13:35 48.86584 3.13362 21043 ft 443 kts 76°
2026-05-06 13:36 48.87382 3.17892 21385 ft 446 kts 75°
2026-05-06 13:36 48.88183 3.22464 21764 ft 448 kts 76°
2026-05-06 13:36 48.88981 3.27041 22095 ft 450 kts 76°
2026-05-06 13:36 48.89785 3.31666 22455 ft 452 kts 76°
2026-05-06 13:37 48.90590 3.36303 22788 ft 455 kts 76°
2026-05-06 13:37 48.91399 3.40961 23144 ft 457 kts 76°
2026-05-06 13:37 48.92207 3.45626 23473 ft 459 kts 76°
2026-05-06 13:37 48.93011 3.50344 23766 ft 460 kts 78°
2026-05-06 13:38 48.93512 3.55151 24033 ft 461 kts 86°
2026-05-06 13:38 48.93585 3.58386 24234 ft 461 kts 91°
2026-05-06 13:38 48.93291 3.64821 24610 ft 462 kts 95°
2026-05-06 13:38 48.93029 3.69700 24858 ft 464 kts 95°
2026-05-06 13:39 48.92767 3.74592 25166 ft 465 kts 96°
2026-05-06 13:39 48.92589 3.77909 25350 ft 466 kts 96°
2026-05-06 13:39 48.92236 3.84423 25676 ft 467 kts 95°
2026-05-06 13:39 48.92059 3.87683 25873 ft 468 kts 96°
2026-05-06 13:40 48.91698 3.94298 26193 ft 470 kts 96°
2026-05-06 13:40 48.91517 3.97581 26359 ft 470 kts 95°
2026-05-06 13:40 48.91244 4.02525 26725 ft 468 kts 96°
2026-05-06 13:40 48.90969 4.07455 27098 ft 467 kts 96°
2026-05-06 13:41 48.90691 4.12368 27502 ft 465 kts 96°
2026-05-06 13:41 48.90388 4.17256 27873 ft 463 kts 99°
2026-05-06 13:41 48.89725 4.22030 28211 ft 461 kts 107°
2026-05-06 13:41 48.88609 4.26573 28581 ft 458 kts 117°
2026-05-06 13:42 48.87126 4.30836 28939 ft 455 kts 120°
2026-05-06 13:42 48.85590 4.35035 29314 ft 454 kts 121°
2026-05-06 13:42 48.84059 4.39214 29714 ft 452 kts 121°
2026-05-06 13:42 48.82535 4.43366 30108 ft 449 kts 121°
2026-05-06 13:43 48.81012 4.47507 30409 ft 448 kts 121°
2026-05-06 13:43 48.79496 4.51628 30676 ft 448 kts 121°
2026-05-06 13:43 48.77978 4.55751 30940 ft 447 kts 121°
2026-05-06 13:43 48.76459 4.59872 31217 ft 447 kts 121°
2026-05-06 13:44 48.74940 4.63989 31492 ft 447 kts 121°
2026-05-06 13:44 48.73421 4.68098 31753 ft 447 kts 121°
2026-05-06 13:44 48.71917 4.72153 32017 ft 447 kts 121°
2026-05-06 13:44 48.70392 4.76253 32278 ft 446 kts 121°
2026-05-06 13:45 48.68868 4.80342 32537 ft 446 kts 121°
2026-05-06 13:45 48.65830 4.88485 33130 ft 444 kts 121°
2026-05-06 13:45 48.64312 4.92549 33401 ft 443 kts 121°
2026-05-06 13:46 48.62795 4.96609 33624 ft 444 kts 121°
2026-05-06 13:46 48.61277 5.00669 33874 ft 444 kts 121°
2026-05-06 13:46 48.59756 5.04727 34082 ft 444 kts 121°
2026-05-06 13:46 48.58232 5.08779 34280 ft 444 kts 122°
2026-05-06 13:47 48.56705 5.12834 34478 ft 445 kts 122°
2026-05-06 13:47 48.55174 5.16886 34692 ft 445 kts 122°
2026-05-06 13:47 48.53634 5.20949 34828 ft 446 kts 122°
2026-05-06 13:47 48.52088 5.25020 34870 ft 449 kts 122°
2026-05-06 13:48 48.48981 5.33204 34949 ft 451 kts 122°
2026-05-06 13:48 48.47424 5.37301 35138 ft 450 kts 122°
2026-05-06 13:48 48.45865 5.41405 35319 ft 451 kts 122°
2026-05-06 13:49 48.44308 5.45509 35481 ft 451 kts 122°
2026-05-06 13:49 48.42749 5.49610 35635 ft 451 kts 122°
2026-05-06 13:49 48.41181 5.53710 35796 ft 451 kts 122°
2026-05-06 13:49 48.39610 5.57801 35948 ft 452 kts 122°
2026-05-06 13:50 48.38036 5.61895 36094 ft 452 kts 123°
2026-05-06 13:50 48.36462 5.65987 36226 ft 452 kts 123°
2026-05-06 13:50 48.34883 5.70087 36363 ft 452 kts 123°
2026-05-06 13:50 48.33308 5.74170 36497 ft 453 kts 123°
2026-05-06 13:51 48.31749 5.78282 36627 ft 454 kts 119°
2026-05-06 13:51 48.30522 5.82665 36790 ft 457 kts 110°
2026-05-06 13:51 48.28578 5.91729 36839 ft 459 kts 110°
2026-05-06 13:52 48.26592 6.00838 36824 ft 459 kts 111°
2026-05-06 13:52 48.24586 6.09943 36836 ft 460 kts 111°
2026-05-06 13:53 48.22576 6.19053 36841 ft 460 kts 111°
2026-05-06 13:53 48.20557 6.28167 36842 ft 460 kts 111°
2026-05-06 13:54 48.18537 6.37280 36844 ft 460 kts 111°
2026-05-06 13:54 48.16520 6.46356 36827 ft 460 kts 112°
2026-05-06 13:55 48.14485 6.55450 36833 ft 461 kts 112°
2026-05-06 13:55 48.12435 6.64543 36848 ft 461 kts 112°
2026-05-06 13:56 48.10380 6.73653 36840 ft 461 kts 112°
2026-05-06 13:56 48.08336 6.82686 36822 ft 462 kts 112°
2026-05-06 13:57 48.06261 6.91777 36829 ft 463 kts 112°
2026-05-06 13:57 48.04178 7.00886 36828 ft 463 kts 112°
2026-05-06 13:58 48.02083 7.09999 36828 ft 463 kts 112°
2026-05-06 13:58 47.99983 7.19102 36819 ft 463 kts 113°
2026-05-06 13:59 47.97876 7.28213 36804 ft 464 kts 113°
2026-05-06 13:59 47.95760 7.37313 36815 ft 464 kts 113°
2026-05-06 14:00 47.93645 7.46351 36820 ft 465 kts 114°
2026-05-06 14:00 47.91508 7.55463 36837 ft 465 kts 114°
2026-05-06 14:01 47.89324 7.64547 36830 ft 465 kts 115°
2026-05-06 14:01 47.87040 7.73534 36850 ft 464 kts 115°
2026-05-06 14:02 47.84731 7.82512 36859 ft 464 kts 115°
2026-05-06 14:02 47.82444 7.91447 36861 ft 464 kts 115°
2026-05-06 14:03 47.80143 8.00418 36860 ft 464 kts 115°
2026-05-06 14:03 47.77847 8.09381 36857 ft 464 kts 115°
2026-05-06 14:04 47.75539 8.18346 36865 ft 464 kts 115°
2026-05-06 14:04 47.73223 8.27284 36859 ft 464 kts 116°
2026-05-06 14:05 47.70897 8.36228 36863 ft 464 kts 116°
2026-05-06 14:05 47.68570 8.45168 36845 ft 465 kts 115°
2026-05-06 14:06 47.66438 8.54274 36853 ft 468 kts 112°
2026-05-06 14:06 47.64451 8.63480 36866 ft 469 kts 112°
2026-05-06 14:07 47.62433 8.72632 36863 ft 469 kts 113°
2026-05-06 14:07 47.60337 8.81783 36864 ft 469 kts 114°
2026-05-06 14:08 47.58218 8.90921 36846 ft 469 kts 114°
2026-05-06 14:08 47.56096 9.00075 36849 ft 469 kts 113°
2026-05-06 14:09 47.53983 9.09227 36858 ft 470 kts 113°
2026-05-06 14:09 47.51869 9.18376 36851 ft 470 kts 114°
2026-05-06 14:10 47.49753 9.27467 36838 ft 470 kts 114°
2026-05-06 14:10 47.47606 9.36603 36853 ft 470 kts 114°
2026-05-06 14:11 47.45455 9.45714 36850 ft 470 kts 114°
2026-05-06 14:11 47.43297 9.54845 36854 ft 470 kts 114°
2026-05-06 14:12 47.41144 9.63977 36829 ft 471 kts 112°
2026-05-06 14:12 47.39770 9.73513 36845 ft 476 kts 105°
2026-05-06 14:13 47.38537 9.83061 36855 ft 476 kts 105°
2026-05-06 14:13 47.37284 9.92644 36855 ft 476 kts 106°
2026-05-06 14:14 47.36013 10.02246 36815 ft 477 kts 106°
2026-05-06 14:14 47.34735 10.11824 36818 ft 476 kts 106°
2026-05-06 14:15 47.33450 10.21397 36816 ft 476 kts 107°
2026-05-06 14:15 47.32156 10.30965 36819 ft 477 kts 106°
2026-05-06 14:16 47.30846 10.40558 36815 ft 477 kts 107°
2026-05-06 14:16 47.29535 10.50067 36793 ft 476 kts 107°
2026-05-06 14:17 47.28203 10.59612 36798 ft 475 kts 107°
2026-05-06 14:17 47.26781 10.69123 36794 ft 475 kts 108°
2026-05-06 14:18 47.25299 10.78606 36787 ft 474 kts 108°
2026-05-06 14:18 47.23819 10.88073 36772 ft 475 kts 108°
2026-05-06 14:19 47.22346 10.97559 36786 ft 476 kts 108°
2026-05-06 14:19 47.20875 11.06993 36787 ft 475 kts 108°
2026-05-06 14:20 47.19395 11.16454 36789 ft 474 kts 108°
2026-05-06 14:20 47.17904 11.25909 36727 ft 474 kts 108°
2026-05-06 14:21 47.16652 11.33761 36730 ft 474 kts 109°
2026-05-06 14:21 47.14888 11.44820 36746 ft 475 kts 108°
2026-05-06 14:22 47.13385 11.54229 36770 ft 476 kts 109°
2026-05-06 14:22 47.11856 11.63695 36761 ft 476 kts 109°
2026-05-06 14:23 47.10581 11.71536 36798 ft 475 kts 109°
2026-05-06 14:23 47.08783 11.82558 36809 ft 475 kts 108°
2026-05-06 14:24 47.06711 11.91646 36802 ft 466 kts 119°
2026-05-06 14:24 47.04582 11.98925 36823 ft 468 kts 119°
2026-05-06 14:25 47.02009 12.07676 36828 ft 467 kts 119°
2026-05-06 14:25 46.99016 12.17829 36839 ft 467 kts 119°
2026-05-06 14:26 46.96872 12.25097 36871 ft 466 kts 119°
2026-05-06 14:26 46.94294 12.33815 36880 ft 467 kts 119°
2026-05-06 14:27 46.91704 12.42538 36846 ft 467 kts 119°
2026-05-06 14:27 46.89103 12.51258 36862 ft 467 kts 120°
2026-05-06 14:28 46.86490 12.59975 36855 ft 468 kts 120°
2026-05-06 14:28 46.83875 12.68656 36865 ft 469 kts 119°
2026-05-06 14:29 46.81245 12.77391 36829 ft 469 kts 119°
2026-05-06 14:29 46.78610 12.86106 36843 ft 469 kts 120°
2026-05-06 14:30 46.75961 12.94814 36864 ft 470 kts 119°
2026-05-06 14:30 46.73297 13.03543 36873 ft 470 kts 120°
2026-05-06 14:31 46.70659 13.12199 36850 ft 470 kts 119°
2026-05-06 14:31 46.67984 13.20906 36872 ft 472 kts 119°
2026-05-06 14:32 46.65297 13.29613 36875 ft 472 kts 119°
2026-05-06 14:32 46.62604 13.38324 36892 ft 472 kts 119°
2026-05-06 14:33 46.59904 13.47027 36863 ft 472 kts 119°
2026-05-06 14:33 46.57203 13.55711 36903 ft 470 kts 119°
2026-05-06 14:34 46.54512 13.64364 36900 ft 470 kts 120°
2026-05-06 14:34 46.51772 13.72979 36899 ft 470 kts 121°
2026-05-06 14:35 46.48719 13.81332 36862 ft 467 kts 124°
2026-05-06 14:35 46.45486 13.89500 36896 ft 466 kts 125°
2026-05-06 14:36 46.42296 13.97599 36919 ft 465 kts 124°
2026-05-06 14:36 46.39159 14.05787 36918 ft 464 kts 124°
2026-05-06 14:37 46.36042 14.13967 36928 ft 463 kts 124°
2026-05-06 14:37 46.32908 14.22111 36939 ft 462 kts 124°
2026-05-06 14:38 46.29765 14.30222 36956 ft 462 kts 124°
2026-05-06 14:38 46.26618 14.38326 36960 ft 462 kts 124°
2026-05-06 14:39 46.23492 14.46361 36961 ft 461 kts 124°
2026-05-06 14:39 46.20350 14.54426 36938 ft 461 kts 124°
2026-05-06 14:40 46.17195 14.62491 36942 ft 461 kts 124°
2026-05-06 14:40 46.14034 14.70536 36941 ft 461 kts 124°
2026-05-06 14:41 46.10867 14.78584 36937 ft 461 kts 124°
2026-05-06 14:41 46.07700 14.86617 36917 ft 461 kts 124°
2026-05-06 14:42 46.04550 14.94590 36931 ft 460 kts 124°
2026-05-06 14:42 46.01369 15.02588 36939 ft 460 kts 124°
2026-05-06 14:43 45.98181 15.10575 36934 ft 460 kts 124°
2026-05-06 14:43 45.94990 15.18553 36905 ft 460 kts 124°
2026-05-06 14:44 45.91798 15.26533 36909 ft 460 kts 124°
2026-05-06 14:45 45.87029 15.38413 36911 ft 460 kts 125°
2026-05-06 14:45 45.83802 15.46419 36914 ft 460 kts 125°
2026-05-06 14:46 45.80586 15.54356 36915 ft 460 kts 125°
2026-05-06 14:46 45.77374 15.62281 36924 ft 460 kts 125°
2026-05-06 14:47 45.74167 15.70159 36932 ft 460 kts 125°
2026-05-06 14:47 45.70937 15.78074 36932 ft 460 kts 125°
2026-05-06 14:48 45.67705 15.85979 36916 ft 460 kts 125°
2026-05-06 14:48 45.64452 15.93895 36919 ft 461 kts 125°
2026-05-06 14:49 45.61215 16.01744 36925 ft 461 kts 125°
2026-05-06 14:49 45.57955 16.09640 36929 ft 462 kts 125°
2026-05-06 14:50 45.54694 16.17534 36930 ft 462 kts 125°
2026-05-06 14:50 45.51427 16.25417 36929 ft 461 kts 126°
2026-05-06 14:51 45.48148 16.33287 36937 ft 461 kts 126°
2026-05-06 14:51 45.44877 16.41134 36940 ft 461 kts 126°
2026-05-06 14:52 45.41596 16.48970 36942 ft 461 kts 126°
2026-05-06 14:52 45.38329 16.56754 36922 ft 461 kts 126°
2026-05-06 14:53 45.35036 16.64581 36918 ft 461 kts 126°
2026-05-06 14:53 45.31736 16.72402 36912 ft 461 kts 126°
2026-05-06 14:54 45.28432 16.80214 36919 ft 461 kts 126°
2026-05-06 14:54 45.25120 16.88016 36901 ft 462 kts 126°
2026-05-06 14:55 45.21794 16.95822 36903 ft 463 kts 126°
2026-05-06 14:55 45.18457 17.03633 36899 ft 463 kts 126°
2026-05-06 14:56 45.15134 17.11402 36906 ft 464 kts 126°
2026-05-06 14:56 45.11734 17.19157 36901 ft 463 kts 128°
2026-05-06 14:57 45.08132 17.26714 36905 ft 461 kts 129°
2026-05-06 14:57 45.04480 17.34166 36908 ft 461 kts 129°
2026-05-06 14:58 45.00854 17.41667 36901 ft 461 kts 129°
2026-05-06 14:58 44.97280 17.49132 36916 ft 461 kts 128°
2026-05-06 14:59 44.93689 17.56633 36918 ft 461 kts 128°
2026-05-06 14:59 44.90077 17.64117 36917 ft 461 kts 129°
2026-05-06 15:00 44.86463 17.71562 36912 ft 460 kts 129°
2026-05-06 15:00 44.82844 17.79024 36906 ft 461 kts 129°
2026-05-06 15:01 44.79223 17.86479 36903 ft 461 kts 129°
2026-05-06 15:01 44.75589 17.93943 36902 ft 462 kts 129°
2026-05-06 15:02 44.71949 18.01387 36894 ft 462 kts 129°
2026-05-06 15:02 44.68326 18.08773 36903 ft 461 kts 128°
2026-05-06 15:03 44.64668 18.16199 36901 ft 462 kts 129°
2026-05-06 15:03 44.61006 18.23622 36909 ft 462 kts 128°
2026-05-06 15:04 44.57344 18.31049 36913 ft 462 kts 128°
2026-05-06 15:04 44.53698 18.38413 36901 ft 462 kts 128°
2026-05-06 15:05 44.50020 18.45820 36897 ft 463 kts 128°
2026-05-06 15:05 44.46326 18.53232 36902 ft 464 kts 128°
2026-05-06 15:06 44.42623 18.60649 36901 ft 465 kts 128°
2026-05-06 15:06 44.38916 18.68070 36888 ft 465 kts 128°
2026-05-06 15:07 44.35212 18.75472 36927 ft 464 kts 128°
2026-05-06 15:07 44.31494 18.82860 36929 ft 464 kts 129°
2026-05-06 15:08 44.27776 18.90228 36927 ft 464 kts 129°
2026-05-06 15:08 44.24077 18.97545 36924 ft 464 kts 128°
2026-05-06 15:09 44.20345 19.04898 36920 ft 464 kts 128°
2026-05-06 15:09 44.16611 19.12251 36921 ft 465 kts 128°
2026-05-06 15:10 44.13132 19.19880 36918 ft 469 kts 117°
2026-05-06 15:10 44.10592 19.28266 36922 ft 470 kts 115°
2026-05-06 15:11 44.08083 19.36606 36928 ft 470 kts 115°
2026-05-06 15:11 44.05541 19.44984 36925 ft 470 kts 115°
2026-05-06 15:12 44.02995 19.53358 36925 ft 470 kts 115°
2026-05-06 15:12 44.00441 19.61737 36914 ft 470 kts 115°
2026-05-06 15:13 43.97885 19.70105 36920 ft 471 kts 115°
2026-05-06 15:13 43.95336 19.78411 36924 ft 471 kts 115°
2026-05-06 15:14 43.92767 19.86777 36932 ft 471 kts 115°
2026-05-06 15:14 43.90196 19.95132 36927 ft 471 kts 115°
2026-05-06 15:15 43.87607 20.03478 36927 ft 471 kts 115°
2026-05-06 15:15 43.85442 20.10420 36936 ft 471 kts 115°
2026-05-06 15:16 43.82860 20.18723 36941 ft 471 kts 115°
2026-05-06 15:16 43.80258 20.27072 36926 ft 472 kts 115°
2026-05-06 15:17 43.77223 20.36767 36944 ft 472 kts 115°
2026-05-06 15:17 43.75020 20.43760 36932 ft 472 kts 115°
2026-05-06 15:18 43.72404 20.52035 36950 ft 472 kts 115°
2026-05-06 15:18 43.69763 20.60369 36929 ft 473 kts 115°
2026-05-06 15:19 43.67117 20.68707 36937 ft 474 kts 115°
2026-05-06 15:19 43.64458 20.77056 36931 ft 474 kts 115°
2026-05-06 15:20 43.61811 20.85332 36918 ft 474 kts 115°
2026-05-06 15:20 43.59142 20.93665 36923 ft 474 kts 115°
2026-05-06 15:21 43.56470 21.01985 36931 ft 474 kts 115°
2026-05-06 15:21 43.53786 21.10306 36936 ft 474 kts 115°
2026-05-06 15:22 43.51110 21.18551 36938 ft 475 kts 115°
2026-05-06 15:22 43.48414 21.26868 36934 ft 475 kts 115°
2026-05-06 15:23 43.45710 21.35190 36936 ft 476 kts 115°
2026-05-06 15:23 43.42999 21.43496 36928 ft 475 kts 115°
2026-05-06 15:24 43.40287 21.51793 36931 ft 476 kts 115°
2026-05-06 15:24 43.37574 21.60035 36942 ft 476 kts 115°
2026-05-06 15:25 43.34839 21.68318 36944 ft 476 kts 115°
2026-05-06 15:25 43.32098 21.76594 36948 ft 476 kts 115°
2026-05-06 15:26 43.29355 21.84866 36947 ft 476 kts 115°
2026-05-06 15:26 43.26602 21.93141 36949 ft 476 kts 115°
2026-05-06 15:27 43.23845 22.01396 36945 ft 476 kts 115°
2026-05-06 15:27 43.21088 22.09649 36951 ft 476 kts 115°
2026-05-06 15:28 43.18347 22.17840 36947 ft 476 kts 115°
2026-05-06 15:28 43.15572 22.26080 36955 ft 476 kts 115°
2026-05-06 15:29 43.12783 22.34301 36970 ft 476 kts 115°
2026-05-06 15:29 43.09995 22.42534 36974 ft 476 kts 115°
2026-05-06 15:30 43.07199 22.50764 36980 ft 476 kts 115°
2026-05-06 15:30 43.04395 22.58978 36986 ft 477 kts 115°
2026-05-06 15:31 43.01604 22.67142 36983 ft 477 kts 115°
2026-05-06 15:31 42.98790 22.75361 36985 ft 477 kts 115°
2026-05-06 15:32 42.94842 22.87840 36988 ft 477 kts 110°
2026-05-06 15:32 42.92650 22.96403 36988 ft 477 kts 108°
2026-05-06 15:33 42.90455 23.04965 36991 ft 478 kts 109°
2026-05-06 15:33 42.88137 23.13473 36991 ft 478 kts 110°
2026-05-06 15:34 42.85769 23.21949 36997 ft 478 kts 110°
2026-05-06 15:34 42.83427 23.30358 37009 ft 478 kts 110°
2026-05-06 15:35 42.81081 23.38836 37005 ft 478 kts 109°
2026-05-06 15:35 42.78739 23.47315 37007 ft 478 kts 109°
2026-05-06 15:36 42.76384 23.55774 37006 ft 478 kts 110°
2026-05-06 15:36 42.74016 23.64231 37006 ft 478 kts 109°
2026-05-06 15:37 42.71642 23.72691 37005 ft 479 kts 109°
2026-05-06 15:37 42.69265 23.81156 37002 ft 479 kts 109°
2026-05-06 15:38 42.66877 23.89619 37003 ft 479 kts 109°
2026-05-06 15:38 42.64547 23.97837 37013 ft 480 kts 109°
2026-05-06 15:39 42.62138 24.06294 37014 ft 480 kts 109°
2026-05-06 15:39 42.59719 24.14751 37010 ft 480 kts 109°
2026-05-06 15:40 42.57305 24.23202 37014 ft 480 kts 109°
2026-05-06 15:40 42.54881 24.31641 37012 ft 480 kts 109°
2026-05-06 15:41 42.52448 24.40071 37007 ft 480 kts 110°
2026-05-06 15:41 42.50008 24.48500 37011 ft 480 kts 109°
2026-05-06 15:42 42.47558 24.56913 36993 ft 480 kts 109°
2026-05-06 15:42 42.45112 24.65328 36997 ft 480 kts 109°
2026-05-06 15:43 42.42665 24.73741 36994 ft 480 kts 109°
2026-05-06 15:43 42.40211 24.82149 36995 ft 480 kts 109°
2026-05-06 15:44 42.37742 24.90554 36990 ft 480 kts 110°
2026-05-06 15:44 42.35263 24.98941 36992 ft 480 kts 110°
2026-05-06 15:45 42.32779 25.07328 36990 ft 480 kts 110°
2026-05-06 15:45 42.30291 25.15708 36992 ft 481 kts 110°
2026-05-06 15:46 42.27788 25.24087 36974 ft 481 kts 110°
2026-05-06 15:46 42.25287 25.32466 36971 ft 481 kts 110°
2026-05-06 15:47 42.22797 25.40784 36978 ft 481 kts 110°
2026-05-06 15:47 42.20279 25.49152 36983 ft 482 kts 110°
2026-05-06 15:48 42.17749 25.57524 36982 ft 482 kts 110°
2026-05-06 15:48 42.15217 25.65892 36984 ft 482 kts 110°
2026-05-06 15:49 42.12677 25.74253 37005 ft 482 kts 109°
2026-05-06 15:49 42.10134 25.82612 37006 ft 482 kts 109°
2026-05-06 15:50 42.07579 25.90965 37000 ft 482 kts 109°
2026-05-06 15:50 42.05007 25.99306 37008 ft 482 kts 109°
2026-05-06 15:51 42.02445 26.07629 37017 ft 482 kts 109°
2026-05-06 15:51 41.99882 26.15977 37016 ft 482 kts 109°
2026-05-06 15:52 41.97307 26.24313 37018 ft 482 kts 109°
2026-05-06 15:52 41.94729 26.32624 37047 ft 482 kts 109°
2026-05-06 15:53 41.92140 26.40942 37021 ft 483 kts 109°
2026-05-06 15:53 41.89562 26.49222 37014 ft 484 kts 109°
2026-05-06 15:54 41.86939 26.57537 37016 ft 485 kts 111°
2026-05-06 15:54 41.83939 26.65653 37022 ft 487 kts 115°
2026-05-06 15:55 41.80650 26.73619 37020 ft 488 kts 116°
2026-05-06 15:55 41.77378 26.81592 37022 ft 488 kts 115°
2026-05-06 15:56 41.74196 26.89610 37051 ft 488 kts 115°
2026-05-06 15:56 41.71036 26.97656 37047 ft 488 kts 115°
2026-05-06 15:57 41.67853 27.05673 37039 ft 488 kts 115°
2026-05-06 15:57 41.64653 27.13676 37042 ft 488 kts 115°
2026-05-06 15:58 41.61449 27.21669 37053 ft 488 kts 115°
2026-05-06 15:58 41.58233 27.29667 37056 ft 488 kts 115°
2026-05-06 15:59 41.55015 27.37665 37061 ft 489 kts 115°
2026-05-06 15:59 41.51787 27.45641 37061 ft 489 kts 115°
2026-05-06 16:00 41.48548 27.53624 37077 ft 489 kts 116°
2026-05-06 16:00 41.45306 27.61603 37081 ft 489 kts 116°
2026-05-06 16:01 41.42087 27.69522 37077 ft 489 kts 116°
2026-05-06 16:01 41.38830 27.77484 37077 ft 489 kts 116°
2026-05-06 16:02 41.35569 27.85435 37072 ft 489 kts 116°
2026-05-06 16:02 41.32859 27.92041 37070 ft 489 kts 116°
2026-05-06 16:03 41.29588 27.99984 37064 ft 489 kts 116°
2026-05-06 16:03 41.26314 28.07909 37085 ft 489 kts 116°
2026-05-06 16:04 41.23037 28.15837 37098 ft 489 kts 116°
2026-05-06 16:04 41.19758 28.23749 37091 ft 489 kts 116°
2026-05-06 16:05 41.16464 28.31653 37089 ft 489 kts 116°
2026-05-06 16:05 41.13173 28.39544 37102 ft 489 kts 116°
2026-05-06 16:06 41.09922 28.47456 37101 ft 488 kts 116°
2026-05-06 16:06 41.06703 28.55373 37093 ft 488 kts 116°
2026-05-06 16:07 41.03474 28.63279 37094 ft 488 kts 116°
2026-05-06 16:07 41.00254 28.71111 37101 ft 487 kts 116°
2026-05-06 16:08 40.97405 28.79203 37092 ft 482 kts 103°
2026-05-06 16:08 40.96359 28.87839 37084 ft 472 kts 85°
2026-05-06 16:09 40.96575 28.96483 37094 ft 470 kts 84°
2026-05-06 16:09 40.96785 29.05133 37086 ft 470 kts 84°
2026-05-06 16:10 40.96988 29.13789 37081 ft 471 kts 84°
2026-05-06 16:10 40.97193 29.22443 37082 ft 471 kts 84°
2026-05-06 16:11 40.97387 29.31107 37088 ft 471 kts 84°
2026-05-06 16:11 40.97575 29.39787 37080 ft 472 kts 84°
2026-05-06 16:12 40.97758 29.48472 37077 ft 472 kts 84°
2026-05-06 16:12 40.97934 29.57157 37087 ft 472 kts 84°
2026-05-06 16:13 40.97408 29.65843 37078 ft 479 kts 101°
2026-05-06 16:13 40.95090 29.74162 37077 ft 484 kts 110°
2026-05-06 16:14 40.92443 29.82338 37076 ft 484 kts 110°
2026-05-06 16:14 40.89788 29.90509 37094 ft 484 kts 111°
2026-05-06 16:15 40.87120 29.98675 37095 ft 483 kts 111°
2026-05-06 16:15 40.84455 30.06825 37092 ft 483 kts 111°
2026-05-06 16:16 40.81788 30.14968 37099 ft 483 kts 111°
2026-05-06 16:16 40.79142 30.23049 37097 ft 483 kts 111°
2026-05-06 16:17 40.76465 30.31178 37097 ft 482 kts 111°
2026-05-06 16:17 40.73775 30.39280 37093 ft 482 kts 111°
2026-05-06 16:18 40.71084 30.47373 37095 ft 482 kts 111°
2026-05-06 16:18 40.68384 30.55461 37095 ft 482 kts 111°
2026-05-06 16:19 40.65680 30.63547 37096 ft 482 kts 111°
2026-05-06 16:19 40.62884 30.71568 37093 ft 483 kts 118°
2026-05-06 16:20 40.59289 30.79053 37092 ft 484 kts 121°
2026-05-06 16:20 40.55649 30.86502 37091 ft 484 kts 121°
2026-05-06 16:21 40.52007 30.93950 37090 ft 484 kts 121°
2026-05-06 16:21 40.48359 31.01395 37111 ft 484 kts 121°
2026-05-06 16:22 40.44705 31.08826 37101 ft 483 kts 121°
2026-05-06 16:22 40.41068 31.16188 37098 ft 483 kts 121°
2026-05-06 16:23 40.37998 31.23966 37093 ft 479 kts 106°
2026-05-06 16:23 40.36446 31.32416 37090 ft 477 kts 99°
2026-05-06 16:24 40.35065 31.40922 37088 ft 477 kts 99°
2026-05-06 16:24 40.33670 31.49434 37082 ft 477 kts 99°
2026-05-06 16:25 40.32276 31.57935 37073 ft 478 kts 99°
2026-05-06 16:25 40.30868 31.66444 37083 ft 478 kts 100°
2026-05-06 16:26 40.29455 31.74958 37076 ft 478 kts 99°
2026-05-06 16:26 40.28037 31.83460 37084 ft 478 kts 100°
2026-05-06 16:27 40.26605 31.91977 37076 ft 479 kts 101°
2026-05-06 16:27 40.24937 32.00362 37071 ft 480 kts 104°
2026-05-06 16:28 40.23024 32.08744 37091 ft 481 kts 105°
2026-05-06 16:28 40.21112 32.17140 37082 ft 481 kts 104°
2026-05-06 16:29 40.19268 32.25564 37080 ft 482 kts 103°
2026-05-06 16:29 40.17445 32.33988 37081 ft 482 kts 104°
2026-05-06 16:30 40.15903 32.41052 37081 ft 482 kts 104°
2026-05-06 16:30 40.13732 32.50856 37088 ft 484 kts 104°
2026-05-06 16:31 40.11853 32.59307 37082 ft 484 kts 104°
2026-05-06 16:31 40.09975 32.67750 37088 ft 484 kts 104°
2026-05-06 16:32 40.08091 32.76183 37089 ft 484 kts 104°
2026-05-06 16:32 40.06105 32.84600 37089 ft 485 kts 107°
2026-05-06 16:33 40.03719 32.92797 37098 ft 486 kts 110°
2026-05-06 16:34 39.99898 33.05073 37095 ft 486 kts 110°
2026-05-06 16:34 39.97450 33.13307 37094 ft 486 kts 109°
2026-05-06 16:35 39.95040 33.21545 37098 ft 486 kts 109°
2026-05-06 16:35 39.92610 33.29773 37097 ft 487 kts 109°
2026-05-06 16:36 39.90161 33.37989 37096 ft 487 kts 110°
2026-05-06 16:36 39.87700 33.46196 37095 ft 487 kts 110°
2026-05-06 16:37 39.85230 33.54407 37093 ft 487 kts 110°
2026-05-06 16:37 39.82909 33.62614 37095 ft 485 kts 103°
2026-05-06 16:38 39.81204 33.71111 37092 ft 485 kts 103°
2026-05-06 16:38 39.79481 33.79596 37083 ft 485 kts 103°
2026-05-06 16:39 39.77739 33.88070 37078 ft 485 kts 105°
2026-05-06 16:39 39.75452 33.96341 37081 ft 486 kts 109°
2026-05-06 16:40 39.73117 34.04593 37084 ft 487 kts 109°
2026-05-06 16:40 39.70800 34.12788 37085 ft 487 kts 109°
2026-05-06 16:41 39.68457 34.21037 37089 ft 487 kts 109°
2026-05-06 16:41 39.66099 34.29278 37088 ft 487 kts 109°
2026-05-06 16:42 39.63729 34.37526 37096 ft 487 kts 109°
2026-05-06 16:42 39.61351 34.45759 37096 ft 487 kts 109°
2026-05-06 16:43 39.58977 34.53994 37098 ft 487 kts 109°
2026-05-06 16:43 39.56596 34.62228 37101 ft 487 kts 110°
2026-05-06 16:44 39.54211 34.70456 37100 ft 488 kts 110°
2026-05-06 16:44 39.51818 34.78676 37100 ft 488 kts 110°
2026-05-06 16:45 39.49415 34.86893 37101 ft 488 kts 110°
2026-05-06 16:45 39.47004 34.95112 37099 ft 488 kts 110°
2026-05-06 16:46 39.44603 35.03274 37099 ft 488 kts 110°
2026-05-06 16:46 39.42181 35.11484 37104 ft 489 kts 110°
2026-05-06 16:47 39.39750 35.19688 37109 ft 489 kts 110°
2026-05-06 16:47 39.37360 35.27912 37108 ft 489 kts 110°
2026-05-06 16:48 39.34997 35.36146 37111 ft 489 kts 110°
2026-05-06 16:48 39.32616 35.44367 37108 ft 489 kts 110°
2026-05-06 16:49 39.30618 35.51195 37112 ft 489 kts 110°
2026-05-06 16:49 39.28208 35.59419 37112 ft 489 kts 110°
2026-05-06 16:50 39.25807 35.67635 37117 ft 489 kts 111°
2026-05-06 16:50 39.23394 35.75847 37117 ft 489 kts 111°
2026-05-06 16:51 39.20968 35.84057 37120 ft 490 kts 111°
2026-05-06 16:51 39.18537 35.92251 37121 ft 490 kts 111°
2026-05-06 16:52 39.16118 36.00404 37130 ft 490 kts 110°
2026-05-06 16:52 39.14602 36.08947 37129 ft 489 kts 98°
2026-05-06 16:53 39.13530 36.17600 37127 ft 489 kts 98°
2026-05-06 16:53 39.12439 36.26250 37125 ft 489 kts 99°
2026-05-06 16:54 39.11331 36.34889 37128 ft 489 kts 99°
2026-05-06 16:54 39.10216 36.43536 37127 ft 489 kts 99°
2026-05-06 16:55 39.09096 36.52179 37124 ft 489 kts 99°
2026-05-06 16:55 39.07974 36.60815 37117 ft 490 kts 99°
2026-05-06 16:56 39.06835 36.69458 37116 ft 490 kts 99°
2026-05-06 16:56 39.05696 36.78101 37117 ft 490 kts 99°
2026-05-06 16:57 39.04555 36.86746 37128 ft 490 kts 99°
2026-05-06 16:57 39.03406 36.95389 37121 ft 490 kts 100°
2026-05-06 16:58 39.02242 37.04022 37117 ft 490 kts 100°
2026-05-06 16:58 39.01073 37.12651 37111 ft 490 kts 100°
2026-05-06 16:59 38.99909 37.21239 37095 ft 490 kts 100°
2026-05-06 16:59 38.98735 37.29879 37092 ft 490 kts 100°
2026-05-06 17:00 38.97551 37.38526 37083 ft 491 kts 100°
2026-05-06 17:00 38.96352 37.47161 37078 ft 491 kts 101°
2026-05-06 17:01 38.95157 37.55748 37073 ft 491 kts 101°
2026-05-06 17:01 38.93953 37.64452 37082 ft 492 kts 101°
2026-05-06 17:02 38.92746 37.73044 37078 ft 492 kts 101°
2026-05-06 17:02 38.91521 37.81677 37078 ft 491 kts 101°
2026-05-06 17:03 38.90287 37.90320 37062 ft 491 kts 101°
2026-05-06 17:03 38.89060 37.98955 37059 ft 492 kts 102°
2026-05-06 17:04 38.87825 38.07586 37059 ft 492 kts 102°
2026-05-06 17:04 38.86577 38.16215 37060 ft 492 kts 102°
2026-05-06 17:05 38.85323 38.24841 37048 ft 492 kts 102°
2026-05-06 17:05 38.84063 38.33482 37047 ft 493 kts 102°
2026-05-06 17:06 38.82793 38.42134 37043 ft 494 kts 102°
2026-05-06 17:06 38.81528 38.50733 37049 ft 493 kts 102°
2026-05-06 17:07 38.80250 38.59385 37058 ft 493 kts 102°
2026-05-06 17:07 38.78967 38.68016 37064 ft 493 kts 102°
2026-05-06 17:08 38.77672 38.76651 37074 ft 493 kts 102°
2026-05-06 17:08 38.76359 38.85279 37061 ft 493 kts 103°
2026-05-06 17:09 38.75047 38.93900 37066 ft 493 kts 103°
2026-05-06 17:09 38.73783 39.02534 37076 ft 493 kts 102°
2026-05-06 17:10 38.72516 39.11173 37072 ft 493 kts 103°
2026-05-06 17:10 38.71235 39.19755 37075 ft 494 kts 103°
2026-05-06 17:11 38.69984 39.28410 37087 ft 494 kts 102°
2026-05-06 17:11 38.68896 39.37113 37084 ft 495 kts 101°
2026-05-06 17:12 38.67853 39.45821 37090 ft 495 kts 101°
2026-05-06 17:12 38.66759 39.54510 37091 ft 495 kts 102°
2026-05-06 17:13 38.65614 39.63191 37092 ft 494 kts 102°
2026-05-06 17:13 38.64473 39.71807 37086 ft 494 kts 102°
2026-05-06 17:14 38.63331 39.80486 37069 ft 495 kts 102°
2026-05-06 17:14 38.62191 39.89168 37073 ft 495 kts 102°
2026-05-06 17:15 38.61040 39.97864 37075 ft 496 kts 102°
2026-05-06 17:15 38.59878 40.06552 37085 ft 496 kts 102°
2026-05-06 17:16 38.58712 40.15240 37091 ft 495 kts 102°
2026-05-06 17:16 38.57540 40.23918 37096 ft 495 kts 103°
2026-05-06 17:17 38.56358 40.32597 37106 ft 495 kts 103°
2026-05-06 17:17 38.55172 40.41268 37082 ft 495 kts 103°
2026-05-06 17:18 38.54026 40.49894 37103 ft 496 kts 102°
2026-05-06 17:18 38.52924 40.58597 37099 ft 495 kts 102°
2026-05-06 17:19 38.51817 40.67270 37118 ft 495 kts 102°
2026-05-06 17:19 38.50674 40.75942 37102 ft 495 kts 103°
2026-05-06 17:20 38.49518 40.84604 37105 ft 495 kts 103°
2026-05-06 17:20 38.48365 40.93268 37105 ft 495 kts 103°
2026-05-06 17:21 38.47205 41.01932 37108 ft 495 kts 103°
2026-05-06 17:21 38.45488 41.10345 37084 ft 486 kts 117°
2026-05-06 17:22 38.42610 41.18112 37093 ft 484 kts 120°
2026-05-06 17:22 38.39713 41.25851 37095 ft 484 kts 120°
2026-05-06 17:23 38.36814 41.33592 37081 ft 484 kts 120°
2026-05-06 17:23 38.33906 41.41326 37090 ft 483 kts 120°
2026-05-06 17:24 38.30989 41.49035 37097 ft 483 kts 121°
2026-05-06 17:24 38.28089 41.56689 37080 ft 483 kts 121°
2026-05-06 17:25 38.25167 41.64396 37085 ft 483 kts 121°
2026-05-06 17:25 38.22239 41.72101 37092 ft 484 kts 121°
2026-05-06 17:26 38.19305 41.79792 37081 ft 484 kts 122°
2026-05-06 17:26 38.16364 41.87484 37087 ft 484 kts 122°
2026-05-06 17:27 38.13415 41.95176 37093 ft 484 kts 122°
2026-05-06 17:27 38.10461 42.02870 37085 ft 485 kts 122°
2026-05-06 17:28 38.07515 42.10516 37087 ft 485 kts 122°
2026-05-06 17:28 38.04542 42.18200 37090 ft 485 kts 122°
2026-05-06 17:29 38.01566 42.25885 37099 ft 486 kts 122°
2026-05-06 17:29 37.98591 42.33574 37105 ft 485 kts 122°
2026-05-06 17:30 37.95604 42.41253 37108 ft 486 kts 122°
2026-05-06 17:30 37.92605 42.48923 37095 ft 486 kts 123°
2026-05-06 17:31 37.89602 42.56593 37104 ft 486 kts 123°
2026-05-06 17:31 37.86603 42.64267 37103 ft 486 kts 123°
2026-05-06 17:32 37.83406 42.71754 37091 ft 482 kts 128°
2026-05-06 17:32 37.79883 42.78961 37105 ft 481 kts 130°
2026-05-06 17:33 37.76309 42.86108 37112 ft 481 kts 129°
2026-05-06 17:33 37.72810 42.93329 37088 ft 482 kts 128°
2026-05-06 17:34 37.69354 43.00595 37105 ft 483 kts 128°
2026-05-06 17:34 37.65886 43.07844 37115 ft 483 kts 128°
2026-05-06 17:35 37.62394 43.15089 37100 ft 482 kts 129°
2026-05-06 17:35 37.58892 43.22303 37116 ft 483 kts 129°
2026-05-06 17:36 37.53630 43.33143 37123 ft 483 kts 129°
2026-05-06 17:36 37.50714 43.39150 37101 ft 484 kts 130°
2026-05-06 17:37 37.47192 43.46381 37110 ft 484 kts 130°
2026-05-06 17:37 37.43664 43.53610 37112 ft 485 kts 129°
2026-05-06 17:38 37.40123 43.60832 37092 ft 484 kts 130°
2026-05-06 17:38 37.36563 43.68062 37117 ft 488 kts 130°
2026-05-06 17:39 37.33018 43.75268 37088 ft 488 kts 131°
2026-05-06 17:39 37.29453 43.82522 37106 ft 488 kts 131°
2026-05-06 17:40 37.25799 43.89665 37102 ft 479 kts 137°
2026-05-06 17:40 37.23607 43.92729 37099 ft 466 kts 147°
2026-05-06 17:40 37.21137 43.95263 37074 ft 452 kts 156°
2026-05-06 17:41 37.15763 43.99115 37080 ft 444 kts 161°
2026-05-06 17:41 37.10324 44.02817 37067 ft 444 kts 161°
2026-05-06 17:42 37.04891 44.06519 37047 ft 444 kts 161°
2026-05-06 17:42 36.99478 44.10206 37052 ft 443 kts 161°
2026-05-06 17:43 36.94074 44.13874 37062 ft 443 kts 161°
2026-05-06 17:43 36.88640 44.17562 37060 ft 446 kts 161°
2026-05-06 17:44 36.83180 44.21258 37075 ft 446 kts 161°
2026-05-06 17:44 36.77721 44.24950 37030 ft 445 kts 161°
2026-05-06 17:45 36.72291 44.28611 37058 ft 446 kts 161°
2026-05-06 17:45 36.66823 44.32289 37052 ft 445 kts 161°
2026-05-06 17:46 36.61372 44.35958 37053 ft 446 kts 162°
2026-05-06 17:46 36.55946 44.39594 37059 ft 446 kts 161°
2026-05-06 17:47 36.50480 44.43253 37073 ft 446 kts 161°
2026-05-06 17:47 36.45022 44.46904 37051 ft 446 kts 161°
2026-05-06 17:48 36.39564 44.50561 37049 ft 445 kts 161°
2026-05-06 17:48 36.34103 44.54209 37028 ft 445 kts 162°
2026-05-06 17:49 36.28643 44.57836 37054 ft 446 kts 162°
2026-05-06 17:49 36.23170 44.61466 37064 ft 446 kts 162°
2026-05-06 17:50 36.17712 44.65085 37037 ft 445 kts 162°
2026-05-06 17:50 36.12254 44.68702 37044 ft 445 kts 162°
2026-05-06 17:51 36.06801 44.72316 37045 ft 444 kts 162°
2026-05-06 17:51 36.01339 44.75928 37021 ft 444 kts 162°
2026-05-06 17:52 35.95886 44.79525 37040 ft 444 kts 162°
2026-05-06 17:52 35.90434 44.83114 37016 ft 444 kts 162°
2026-05-06 17:53 35.85016 44.86672 37043 ft 443 kts 162°
2026-05-06 17:53 35.79569 44.90248 37040 ft 444 kts 162°
2026-05-06 17:54 35.74115 44.93822 37027 ft 443 kts 162°
2026-05-06 17:54 35.68665 44.97392 37035 ft 443 kts 162°
2026-05-06 17:55 35.63223 45.00946 37031 ft 443 kts 162°
2026-05-06 17:55 35.57785 45.04490 37020 ft 442 kts 162°
2026-05-06 17:56 35.52348 45.08030 37038 ft 442 kts 162°
2026-05-06 17:56 35.46909 45.11562 37031 ft 442 kts 162°
2026-05-06 17:57 35.41514 45.15067 37042 ft 442 kts 162°
2026-05-06 17:57 35.36077 45.18598 37030 ft 442 kts 162°
2026-05-06 17:58 35.30640 45.22119 37017 ft 441 kts 162°
2026-05-06 17:58 35.25202 45.25630 37025 ft 441 kts 162°
2026-05-06 17:59 35.19777 45.29130 36999 ft 441 kts 163°
2026-05-06 17:59 35.14347 45.32640 37014 ft 441 kts 162°
2026-05-06 18:00 35.08946 45.36118 37021 ft 441 kts 163°
2026-05-06 18:00 35.03472 45.39625 36992 ft 441 kts 163°
2026-05-06 18:01 34.98066 45.43086 37006 ft 441 kts 163°
2026-05-06 18:01 34.92628 45.46573 37009 ft 442 kts 162°
2026-05-06 18:02 34.87186 45.50053 37016 ft 441 kts 163°
2026-05-06 18:02 34.81745 45.53525 37024 ft 442 kts 162°
2026-05-06 18:03 34.76295 45.57000 37014 ft 441 kts 162°
2026-05-06 18:03 34.70862 45.60466 37023 ft 441 kts 162°
2026-05-06 18:04 34.65422 45.63923 37043 ft 441 kts 162°
2026-05-06 18:04 34.60016 45.67351 37037 ft 441 kts 162°
2026-05-06 18:05 34.54582 45.70793 37057 ft 440 kts 162°
2026-05-06 18:05 34.49150 45.74231 37047 ft 440 kts 162°
2026-05-06 18:06 34.43721 45.77663 37072 ft 440 kts 162°
2026-05-06 18:06 34.38294 45.81094 37084 ft 440 kts 162°
2026-05-06 18:07 34.32860 45.84514 37066 ft 440 kts 163°
2026-05-06 18:07 34.27428 45.87927 37088 ft 440 kts 163°
2026-05-06 18:08 34.22027 45.91326 37097 ft 440 kts 163°
2026-05-06 18:08 34.16601 45.94732 37090 ft 440 kts 163°
2026-05-06 18:09 34.11152 45.98133 37095 ft 440 kts 163°
2026-05-06 18:09 34.05715 46.01532 37111 ft 440 kts 163°
2026-05-06 18:10 34.00269 46.04940 37120 ft 440 kts 163°
2026-05-06 18:10 33.94831 46.08338 37114 ft 440 kts 163°
2026-05-06 18:11 33.89424 46.11700 37119 ft 440 kts 163°
2026-05-06 18:11 33.83980 46.15089 37120 ft 440 kts 163°
2026-05-06 18:12 33.78534 46.18466 37128 ft 441 kts 163°
2026-05-06 18:12 33.73083 46.21843 37132 ft 441 kts 163°
2026-05-06 18:13 33.67630 46.25220 37149 ft 441 kts 163°
2026-05-06 18:13 33.62176 46.28597 37136 ft 441 kts 163°
2026-05-06 18:14 33.56718 46.31971 37147 ft 440 kts 163°
2026-05-06 18:14 33.51299 46.35308 37165 ft 440 kts 163°
2026-05-06 18:15 33.45858 46.38648 37153 ft 439 kts 163°
2026-05-06 18:15 33.40418 46.41993 37142 ft 440 kts 163°
2026-05-06 18:16 33.34971 46.45337 37133 ft 440 kts 164°
2026-05-06 18:16 33.29524 46.48680 37077 ft 440 kts 164°
2026-05-06 18:17 33.24069 46.52019 37069 ft 440 kts 163°
2026-05-06 18:17 33.18652 46.55333 37072 ft 440 kts 164°
2026-05-06 18:18 33.13204 46.58658 37063 ft 440 kts 164°
2026-05-06 18:18 33.07746 46.61986 37066 ft 440 kts 164°
2026-05-06 18:19 33.02282 46.65311 37067 ft 440 kts 164°
2026-05-06 18:19 32.96857 46.68604 37041 ft 441 kts 164°
2026-05-06 18:20 32.91389 46.71918 37025 ft 441 kts 164°
2026-05-06 18:20 32.85899 46.75257 37026 ft 441 kts 164°
2026-05-06 18:21 32.80438 46.78567 37009 ft 440 kts 164°
2026-05-06 18:21 32.75007 46.81847 37011 ft 440 kts 164°
2026-05-06 18:22 32.69554 46.85141 36978 ft 440 kts 165°
2026-05-06 18:22 32.64096 46.88430 36995 ft 440 kts 165°
2026-05-06 18:23 32.58635 46.91721 36995 ft 440 kts 165°
2026-05-06 18:23 32.53180 46.94999 36993 ft 439 kts 165°
2026-05-06 18:24 32.47726 46.98274 36997 ft 439 kts 165°
2026-05-06 18:24 32.42302 47.01519 36988 ft 439 kts 165°
2026-05-06 18:25 32.36844 47.04774 36953 ft 439 kts 165°
2026-05-06 18:25 32.31385 47.08037 36962 ft 440 kts 165°
2026-05-06 18:26 32.26850 47.10760 36965 ft 440 kts 165°
2026-05-06 18:26 32.21392 47.14023 36940 ft 440 kts 165°
2026-05-06 18:27 32.15924 47.17274 36948 ft 440 kts 165°
2026-05-06 18:27 32.10453 47.20526 36954 ft 440 kts 165°
2026-05-06 18:28 32.04981 47.23772 36938 ft 440 kts 165°
2026-05-06 18:28 31.99512 47.27020 36953 ft 440 kts 165°
2026-05-06 18:29 31.94041 47.30261 36959 ft 440 kts 165°
2026-05-06 18:29 31.88572 47.33497 36927 ft 440 kts 165°
2026-05-06 18:30 31.83138 47.36710 36946 ft 440 kts 165°
2026-05-06 18:30 31.77669 47.39938 36962 ft 440 kts 165°
2026-05-06 18:31 31.72197 47.43161 36931 ft 440 kts 165°
2026-05-06 18:31 31.66724 47.46380 36945 ft 440 kts 165°
2026-05-06 18:32 31.61254 47.49594 36958 ft 439 kts 165°
2026-05-06 18:32 31.55787 47.52803 36932 ft 439 kts 165°
2026-05-06 18:33 31.50314 47.56012 36940 ft 439 kts 165°
2026-05-06 18:33 31.44844 47.59215 36948 ft 439 kts 165°
2026-05-06 18:34 31.39411 47.62391 36929 ft 439 kts 165°
2026-05-06 18:34 31.33937 47.65585 36936 ft 439 kts 165°
2026-05-06 18:35 31.28469 47.68767 36941 ft 439 kts 166°
2026-05-06 18:35 31.22993 47.71954 36911 ft 439 kts 165°
2026-05-06 18:36 31.17528 47.75137 36925 ft 439 kts 166°
2026-05-06 18:36 31.12054 47.78317 36931 ft 439 kts 166°
2026-05-06 18:37 31.06581 47.81495 36907 ft 439 kts 166°
2026-05-06 18:37 31.01104 47.84664 36917 ft 439 kts 166°
2026-05-06 18:38 30.95622 47.87831 36928 ft 440 kts 166°
2026-05-06 18:38 30.90135 47.91003 36928 ft 440 kts 166°
2026-05-06 18:39 30.84652 47.94173 36933 ft 440 kts 166°
2026-05-06 18:40 30.76419 47.98923 36936 ft 440 kts 166°
2026-05-06 18:40 30.70934 48.02079 36910 ft 440 kts 166°
2026-05-06 18:41 30.65475 48.05210 36907 ft 440 kts 166°
2026-05-06 18:41 30.59977 48.08354 36897 ft 440 kts 166°
2026-05-06 18:42 30.54491 48.11502 36864 ft 440 kts 166°
2026-05-06 18:42 30.48995 48.14654 36869 ft 440 kts 166°
2026-05-06 18:43 30.43502 48.17791 36862 ft 440 kts 166°
2026-05-06 18:43 30.38007 48.20926 36841 ft 440 kts 166°
2026-05-06 18:44 30.32510 48.24062 36853 ft 440 kts 166°
2026-05-06 18:44 30.27009 48.27189 36862 ft 440 kts 166°
2026-05-06 18:45 30.21512 48.30310 36889 ft 440 kts 166°
2026-05-06 18:45 30.16011 48.33441 36900 ft 440 kts 166°
2026-05-06 18:46 30.10550 48.36542 36905 ft 440 kts 166°
2026-05-06 18:46 30.05047 48.39664 36901 ft 440 kts 166°
2026-05-06 18:47 29.99542 48.42776 36893 ft 440 kts 166°
2026-05-06 18:47 29.94041 48.45882 36895 ft 440 kts 166°
2026-05-06 18:48 29.88535 48.48985 36893 ft 441 kts 166°
2026-05-06 18:48 29.83032 48.52127 36876 ft 442 kts 165°
2026-05-06 18:49 29.77535 48.55340 36889 ft 443 kts 165°
2026-05-06 18:49 29.72071 48.58532 36892 ft 443 kts 165°
2026-05-06 18:50 29.66564 48.61717 36869 ft 443 kts 165°
2026-05-06 18:50 29.61056 48.64893 36878 ft 443 kts 165°
2026-05-06 18:51 29.55539 48.68076 36885 ft 444 kts 165°
2026-05-06 18:51 29.50021 48.71255 36854 ft 444 kts 165°
2026-05-06 18:52 29.44489 48.74434 36858 ft 445 kts 165°
2026-05-06 18:52 29.38948 48.77618 36863 ft 445 kts 165°
2026-05-06 18:53 29.33403 48.80817 36872 ft 446 kts 165°
2026-05-06 18:53 29.27860 48.84011 36855 ft 447 kts 165°
2026-05-06 18:54 29.22301 48.87205 36856 ft 447 kts 165°
2026-05-06 18:54 29.16771 48.90382 36858 ft 447 kts 165°
2026-05-06 18:55 29.11197 48.93571 36861 ft 448 kts 165°
2026-05-06 18:55 29.05622 48.96752 36866 ft 448 kts 165°
2026-05-06 18:56 29.00041 48.99940 36869 ft 448 kts 165°
2026-05-06 18:56 28.94466 49.03119 36846 ft 448 kts 165°
2026-05-06 18:57 28.88869 49.06302 36856 ft 449 kts 165°
2026-05-06 18:57 28.83277 49.09499 36851 ft 451 kts 164°
2026-05-06 18:58 28.77698 49.12801 36835 ft 452 kts 163°
2026-05-06 18:58 28.72126 49.16142 36857 ft 453 kts 163°
2026-05-06 18:59 28.66538 49.19471 36867 ft 453 kts 163°
2026-05-06 18:59 28.60973 49.22762 36874 ft 453 kts 163°
2026-05-06 19:00 28.55372 49.26053 36872 ft 453 kts 164°
2026-05-06 19:00 28.49864 49.29641 36887 ft 468 kts 153°
2026-05-06 19:01 28.44869 49.34532 36889 ft 475 kts 149°
2026-05-06 19:01 28.39898 49.39480 36881 ft 475 kts 149°
2026-05-06 19:02 28.34922 49.44414 36890 ft 475 kts 149°
2026-05-06 19:02 28.29974 49.49309 36900 ft 475 kts 149°
2026-05-06 19:03 28.24995 49.54229 36884 ft 475 kts 149°
2026-05-06 19:03 28.19987 49.59086 36901 ft 471 kts 151°
2026-05-06 19:04 28.14804 49.63595 36900 ft 467 kts 154°
2026-05-06 19:04 28.09551 49.67937 36906 ft 467 kts 154°
2026-05-06 19:05 28.04330 49.72325 36886 ft 468 kts 153°
2026-05-06 19:05 27.99043 49.76587 36897 ft 465 kts 155°
2026-05-06 19:06 27.93694 49.80675 36896 ft 464 kts 156°
2026-05-06 19:06 27.88369 49.84731 36872 ft 464 kts 155°
2026-05-06 19:07 27.83032 49.88853 36881 ft 465 kts 155°
2026-05-06 19:07 27.77705 49.93002 36889 ft 465 kts 155°
2026-05-06 19:08 27.72382 49.97141 36873 ft 465 kts 155°
2026-05-06 19:08 27.67043 50.01267 36882 ft 465 kts 155°
2026-05-06 19:09 27.61698 50.05376 36888 ft 465 kts 155°
2026-05-06 19:09 27.56345 50.09493 36890 ft 465 kts 155°
2026-05-06 19:10 27.51000 50.13615 36874 ft 466 kts 155°
2026-05-06 19:10 27.45648 50.17736 36878 ft 466 kts 155°
2026-05-06 19:11 27.41220 50.21198 36875 ft 468 kts 153°
2026-05-06 19:11 27.38563 50.23352 36704 ft 470 kts 153°
2026-05-06 19:11 27.35903 50.25534 35752 ft 477 kts 153°
2026-05-06 19:11 27.32342 50.28462 34541 ft 482 kts 152°
2026-05-06 19:12 27.30510 50.29962 34004 ft 483 kts 152°
2026-05-06 19:12 27.27786 50.32183 32944 ft 487 kts 152°
2026-05-06 19:12 27.25037 50.34412 32144 ft 484 kts 152°
2026-05-06 19:12 27.22335 50.36597 31195 ft 486 kts 151°
2026-05-06 19:13 27.19577 50.38817 30192 ft 489 kts 151°
2026-05-06 19:13 27.16803 50.41044 29052 ft 491 kts 150°
2026-05-06 19:13 27.14021 50.43279 27845 ft 493 kts 150°
2026-05-06 19:13 27.11224 50.45528 26588 ft 496 kts 149°
2026-05-06 19:14 27.08409 50.47791 25334 ft 499 kts 149°
2026-05-06 19:14 27.05579 50.50070 24080 ft 502 kts 148°
2026-05-06 19:14 27.02748 50.52356 23118 ft 498 kts 148°
2026-05-06 19:14 26.99856 50.54393 22239 ft 485 kts 156°
2026-05-06 19:15 26.96769 50.55780 21405 ft 473 kts 166°
2026-05-06 19:15 26.93587 50.56513 20563 ft 463 kts 175°
2026-05-06 19:15 26.90400 50.56720 19726 ft 456 kts 179°
2026-05-06 19:15 26.87246 50.56861 18929 ft 451 kts 179°
2026-05-06 19:16 26.84126 50.56999 18173 ft 446 kts 179°
2026-05-06 19:16 26.81043 50.57135 17347 ft 440 kts 179°
2026-05-06 19:16 26.78002 50.57272 16594 ft 434 kts 178°
2026-05-06 19:16 26.74995 50.57409 15752 ft 431 kts 178°
2026-05-06 19:17 26.72007 50.57543 14995 ft 426 kts 178°
2026-05-06 19:17 26.69066 50.57676 14275 ft 421 kts 177°
2026-05-06 19:17 26.66160 50.57809 13510 ft 418 kts 177°
2026-05-06 19:17 26.63294 50.57943 13200 ft 402 kts 177°
2026-05-06 19:18 26.60573 50.58070 13072 ft 383 kts 177°
2026-05-06 19:18 26.57962 50.58191 12946 ft 366 kts 177°
2026-05-06 19:18 26.55479 50.58384 12827 ft 350 kts 170°
2026-05-06 19:18 26.53253 50.59202 12688 ft 325 kts 153°
2026-05-06 19:19 26.51394 50.60483 12436 ft 306 kts 148°
2026-05-06 19:19 26.49654 50.61737 11892 ft 300 kts 148°
2026-05-06 19:19 26.47908 50.62996 11253 ft 298 kts 148°
2026-05-06 19:19 26.46170 50.64247 10605 ft 296 kts 148°
2026-05-06 19:20 26.44442 50.65492 9943 ft 296 kts 148°
2026-05-06 19:20 26.42711 50.66735 9251 ft 295 kts 148°
2026-05-06 19:20 26.40990 50.67971 8559 ft 294 kts 150°
2026-05-06 19:20 26.39276 50.69203 7879 ft 292 kts 150°
2026-05-06 19:21 26.37582 50.70446 7246 ft 293 kts 145°
2026-05-06 19:21 26.36122 50.72031 6886 ft 292 kts 129°
2026-05-06 19:21 26.34993 50.73910 6481 ft 293 kts 124°
2026-05-06 19:21 26.33895 50.75818 6097 ft 291 kts 123°
2026-05-06 19:22 26.32807 50.77714 5656 ft 290 kts 123°
2026-05-06 19:22 26.31720 50.79603 5260 ft 288 kts 124°
2026-05-06 19:22 26.30638 50.81478 4881 ft 286 kts 123°
2026-05-06 19:22 26.29571 50.83290 4758 ft 273 kts 124°
2026-05-06 19:23 26.28528 50.84999 4635 ft 260 kts 125°
2026-05-06 19:23 26.27531 50.86623 4521 ft 248 kts 125°
2026-05-06 19:23 26.26455 50.88058 4390 ft 236 kts 143°
2026-05-06 19:23 26.25053 50.88882 4272 ft 224 kts 167°
2026-05-06 19:24 26.23573 50.89000 4137 ft 211 kts 191°
2026-05-06 19:24 26.22211 50.88482 4026 ft 201 kts 213°
2026-05-06 19:24 26.21182 50.87509 3844 ft 195 kts 234°
2026-05-06 19:24 26.20535 50.86199 3635 ft 193 kts 254°
2026-05-06 19:25 26.20197 50.84768 3526 ft 191 kts 258°
2026-05-06 19:25 26.19859 50.83343 3400 ft 191 kts 257°
2026-05-06 19:25 26.19519 50.81918 3305 ft 187 kts 257°
2026-05-06 19:25 26.19196 50.80563 3207 ft 179 kts 257°
2026-05-06 19:26 26.18885 50.79196 2962 ft 185 kts 262°
2026-05-06 19:26 26.18943 50.77769 2610 ft 183 kts 286°
2026-05-06 19:26 26.19462 50.76543 2364 ft 169 kts 304°
2026-05-06 19:26 26.20080 50.75479 2150 ft 158 kts 304°
2026-05-06 19:27 26.20656 50.74483 1958 ft 149 kts 305°
2026-05-06 19:27 26.21197 50.73547 1794 ft 138 kts 305°
2026-05-06 19:27 26.21705 50.72670 1631 ft 133 kts 306°
2026-05-06 19:27 26.22203 50.71812 1423 ft 132 kts 307°
2026-05-06 19:28 26.22701 50.70956 1254 ft 131 kts 307°
2026-05-06 19:28 26.23191 50.70106 1109 ft 130 kts 308°
2026-05-06 19:28 26.23671 50.69277 938 ft 128 kts 307°
2026-05-06 19:28 26.24151 50.68446 803 ft 128 kts 307°
2026-05-06 19:29 26.24650 50.67585 620 ft 132 kts 307°
2026-05-06 19:29 26.25136 50.66742 475 ft 131 kts 302°
2026-05-06 19:29 26.25619 50.65903 296 ft 126 kts 303°
2026-05-06 19:29 26.26106 50.65061 92 ft 130 kts 304°
2026-05-06 19:30 26.26585 50.64230 26 ft 121 kts 305°
2026-05-06 19:30 26.26960 50.63578 18 ft 76 kts 302°
2026-05-06 19:30 26.27153 50.63244 19 ft 26 kts 302°
2026-05-06 19:30 26.27216 50.63122 19 ft 20 kts 294°
2026-05-06 19:31 26.27253 50.62938 20 ft 27 kts 270°
2026-05-06 19:31 26.27233 50.62838 22 ft 10 kts 210°
2026-05-06 19:31 26.27173 50.62874 20 ft 0 kts 122°
2026-05-06 19:32 26.27169 50.62880 22 ft 6 kts 122°
2026-05-06 19:33 26.27100 50.62906 20 ft 13 kts 208°
2026-05-06 19:33 26.27038 50.62898 20 ft 4 kts 152°
2026-05-06 19:33 26.27031 50.62904 20 ft 1 kts 142°
2026-05-06 19:33 26.27017 50.62911 20 ft 1 kts 176°
2026-05-06 19:34 26.27006 50.62906 19 ft 3 kts 197°
2026-05-06 19:34 26.26957 50.62872 19 ft 9 kts 214°
2026-05-06 19:34 26.26928 50.62851 22 ft 0 kts 213°
2026-05-06 19:34 26.26927 50.62851 22 ft 0 kts 213°